Simultaneous Nadir Overpasses (SNOs) Predictions

Prediction of SNOs between NOAA-15 and METOP-C Satellite Orbit:

Table of predicted SNOs for the next 14.0 days since TLE Epoch: 6/4/2022
Index Date (NOAA-15) Time (NOAA-15) Lat,Lon (NOAA-15) SZA (NOAA-15 ) Date (METOP-C) Time (METOP-C) Lat,Lon (METOP-C) SZA (METOP-C ) Distance(km) Time Diff (sec)
1 06/10/2022 14:18:50 -81.07,-176.63 119.97 06/10/2022 14:17:38 -81.06,-176.72 120.02 1.99 72
2 06/10/2022 15:09:18 81.07, -9.29 60.03 06/10/2022 15:08:18 81.06, -9.40 59.99 2.43 60
3 06/10/2022 15:59:52 -81.07, 158.04 119.98 06/10/2022 15:58:59 -81.07, 158.16 119.99 2.25 53
4 06/10/2022 16:50:20 81.07, -34.62 60.02 06/10/2022 16:49:39 81.07, -34.52 60.01 1.93 41
5 06/10/2022 17:40:54 -81.08, 132.71 119.99 06/10/2022 17:40:21 -81.06, 132.68 120.02 1.67 33
6 06/10/2022 18:31:21 81.06, -59.58 60.04 06/10/2022 18:31:00 81.08, -59.63 60.03 1.88 21
7 06/10/2022 19:21:55 -81.06, 107.74 119.97 06/10/2022 19:21:42 -81.07, 107.56 119.99 3.27 13
8 06/10/2022 20:12:24 81.08, -85.28 60.00 06/10/2022 20:12:22 81.07, -85.12 60.01 2.90 2
9 06/10/2022 21:02:57 -81.07, 82.41 119.98 06/10/2022 21:03:03 -81.08, 82.45 119.97 1.56 6
10 06/10/2022 21:53:25 81.07,-110.23 60.02 06/10/2022 21:53:43 81.08,-110.24 60.03 1.25 18
11 06/10/2022 22:43:59 -81.07, 57.08 119.99 06/10/2022 22:44:25 -81.07, 56.96 119.99 2.16 26
12 06/10/2022 23:34:27 81.07,-135.56 60.01 06/10/2022 23:35:05 81.07,-135.73 60.01 2.84 38
13 06/11/2022 00:25:01 -81.07, 31.75 120.00 06/11/2022 00:25:46 -81.08, 31.84 119.97 1.95 45
14 06/11/2022 01:15:29 81.07,-160.89 60.00 06/11/2022 01:16:26 81.08,-160.84 60.03 1.22 57
15 06/11/2022 02:06:03 -81.08, 6.42 120.02 06/11/2022 02:07:08 -81.08, 6.36 119.99 1.05 65



Historial Predications of SNOs between NOAA-15 and METOP-C
